Total_Precipitation_Accumulation
1.35 1.33 1.33 1.22 1.18 1.22 1.30 1.50 1.84 1.63 1.06 0.81 0.78 0.82 0.89 0.99 1.12 1.07 1.00 1.12 1.21 1.30 1.43 1.50 1.59 1.86 2.29 2.96 3.90 4.92 5.16 4.42 3.55 3.05 3.03 3.52 4.05 4.55
1.42 1.44 1.42 1.39 1.37 1.32 1.35 1.43 1.60 1.76 1.39 0.79 0.72 0.77 0.92 1.04 1.21 1.21 1.20 1.32 1.29 1.35 1.41 1.48 1.51 1.65 1.92 2.30 2.89 3.81 4.75 4.93 4.33 3.70 3.43 3.53 3.88 4.25
1.47 1.54 1.49 1.46 1.55 1.49 1.42 1.42 1.46 1.59 1.61 0.96 0.74 0.78 1.01 1.21 1.27 1.32 1.38 1.31 1.29 1.38 1.42 1.48 1.51 1.59 1.79 2.03 2.36 2.93 3.81 4.59 4.77 4.42 4.07 3.84 3.83 3.95
1.46 1.49 1.51 1.51 1.56 1.55 1.56 1.50 1.42 1.39 1.49 1.27 0.92 0.91 1.08 1.28 1.33 1.39 1.47 1.43 1.39 1.50 1.52 1.58 1.63 1.71 1.83 1.96 2.14 2.41 3.02 3.72 4.37 4.57 4.36 4.00 3.85 3.97
1.71 1.69 1.61 1.61 1.63 1.58 1.61 1.57 1.49 1.40 1.38 1.40 1.14 1.00 1.09 1.23 1.37 1.46 1.50 1.50 1.52 1.64 1.59 1.59 1.69 1.81 1.88 1.94 2.03 2.20 2.43 2.80 3.38 4.10 4.36 4.18 3.93 3.90
1.84 1.85 1.81 1.79 1.73 1.70 1.73 1.70 1.68 1.71 1.65 1.63 1.44 1.22 1.17 1.21 1.40 1.61 1.72 1.58 1.56 1.57 1.63 1.61 1.71 1.80 1.86 1.84 1.77 1.87 2.09 2.44 2.98 3.60 4.12 4.26 3.94 3.79
1.72 1.72 1.78 1.97 2.03 2.08 2.11 2.01 2.02 2.15 2.11 2.01 1.77 1.53 1.36 1.40 1.51 1.59 1.82 1.79 1.69 1.62 1.65 1.58 1.59 1.57 1.61 1.72 1.78 1.86 2.02 2.17 2.50 3.04 3.58 3.98 3.98 3.84
1.63 1.55 1.54 1.77 1.88 2.03 2.18 2.19 2.26 2.46 2.53 2.41 2.09 1.80 1.48 1.39 1.50 1.74 1.97 2.17 2.11 1.70 1.72 1.77 1.72 1.76 1.66 1.65 1.83 1.89 1.99 2.13 2.28 2.61 3.03 3.43 3.68 3.82
1.46 1.46 1.44 1.48 1.62 1.55 1.76 1.89 1.94 2.15 2.40 2.48 2.42 1.94 1.63 1.48 1.78 2.00 2.05 2.19 2.08 1.82 1.93 2.17 1.98 1.94 1.82 1.82 1.87 1.75 1.84 1.97 2.06 2.27 2.59 2.97 3.33 3.58
1.27 1.25 1.25 1.30 1.42 1.60 1.69 1.70 1.61 1.69 1.99 2.19 2.34 2.13 1.90 1.85 2.13 2.44 2.57 2.59 2.35 2.11 2.07 2.47 2.24 2.12 2.03 1.94 1.88 1.69 1.71 1.82 1.92 2.03 2.22 2.54 2.88 3.11
1.16 1.16 1.12 1.10 1.44 1.74 1.70 1.62 1.49 1.47 1.65 1.95 2.19 2.28 2.37 2.50 2.67 2.98 3.18 3.15 2.93 2.47 2.21 2.41 2.44 2.37 2.24 2.13 1.94 1.76 1.65 1.68 1.74 1.84 1.92 2.09 2.37 2.72
1.15 1.10 1.23 1.28 1.54 1.66 1.57 1.64 1.69 1.51 1.43 1.51 1.62 1.74 1.83 2.00 2.39 2.68 2.96 3.15 3.06 2.93 2.39 2.37 2.50 2.58 2.88 2.42 1.96 1.64 1.51 1.57 1.61 1.67 1.73 1.79 2.01 2.17
1.29 1.20 1.16 1.37 1.44 1.53 1.59 1.59 1.76 1.64 1.52 1.61 1.62 1.57 1.60 1.73 1.92 2.22 2.62 2.98 3.18 3.01 2.44 2.55 2.76 2.51 2.74 2.60 2.15 1.76 1.46 1.43 1.45 1.52 1.60 1.66 1.78 1.90
1.30 1.15 1.15 1.35 1.40 1.49 1.50 1.62 1.73 1.68 1.57 1.60 1.55 1.52 1.54 1.63 1.74 1.94 2.22 2.49 2.67 2.70 2.41 2.48 2.95 2.66 2.57 2.38 2.20 1.98 1.61 1.39 1.29 1.32 1.39 1.65 1.80 1.87
1.46 1.47 1.39 1.43 1.42 1.35 1.42 1.49 1.49 1.46 1.55 1.58 1.47 1.38 1.38 1.48 1.55 1.70 1.88 2.12 2.33 2.45 2.43 2.34 2.55 2.59 2.60 2.48 2.07 1.81 1.74 1.62 1.33 1.30 1.40 1.45 1.53 1.68
1.56 1.57 1.52 1.47 1.39 1.34 1.35 1.30 1.26 1.35 1.46 1.46 1.34 1.24 1.23 1.34 1.49 1.62 1.80 1.99 2.28 2.39 2.38 2.37 2.41 2.61 2.65 2.22 1.97 1.75 1.56 1.77 1.55 1.35 1.42 1.49 1.49 1.47
1.69 1.59 1.46 1.42 1.43 1.36 1.27 1.22 1.22 1.29 1.35 1.28 1.27 1.25 1.25 1.33 1.42 1.53 1.77 1.94 2.16 2.17 2.27 2.44 2.48 2.49 2.55 2.47 2.30 1.82 1.50 1.46 1.45 1.38 1.47 1.63 1.68 1.58
1.76 1.61 1.38 1.28 1.28 1.26 1.24 1.23 1.19 1.21 1.21 1.21 1.27 1.29 1.31 1.36 1.41 1.47 1.68 1.90 2.00 1.97 2.06 2.24 2.42 2.54 2.68 2.80 2.53 2.01 1.63 1.51 1.46 1.39 1.43 1.66 1.87 1.75
1.52 1.40 1.28 1.21 1.14 1.11 1.16 1.15 1.15 1.13 1.17 1.22 1.24 1.22 1.24 1.29 1.35 1.43 1.56 1.70 1.79 1.84 1.91 2.02 2.26 2.50 2.64 2.74 2.77 2.30 1.93 1.70 1.60 1.62 1.56 1.60 1.80 1.79
1.30 1.26 1.26 1.22 1.17 1.14 1.16 1.17 1.15 1.14 1.21 1.26 1.26 1.21 1.21 1.30 1.34 1.36 1.42 1.57 1.68 1.73 1.82 1.90 2.11 2.39 2.58 2.52 2.64 2.58 2.29 1.96 1.81 1.83 1.72 1.64 1.70 1.79
1.27 1.23 1.23 1.27 1.26 1.22 1.20 1.19 1.21 1.21 1.21 1.27 1.26 1.22 1.21 1.29 1.32 1.30 1.35 1.50 1.60 1.65 1.75 1.79 1.89 2.10 2.26 2.29 2.34 2.32 2.37 2.33 2.03 1.88 1.80 1.86 1.92 1.90
1.23 1.22 1.20 1.24 1.29 1.27 1.25 1.25 1.25 1.25 1.27 1.30 1.24 1.20 1.21 1.27 1.32 1.31 1.33 1.38 1.42 1.49 1.59 1.64 1.72 1.96 2.21 2.38 2.29 2.10 2.19 2.33 2.34 2.09 1.91 1.98 2.28 2.52
1.27 1.27 1.22 1.21 1.22 1.22 1.22 1.22 1.24 1.24 1.24 1.26 1.20 1.12 1.13 1.23 1.25 1.27 1.26 1.23 1.27 1.34 1.46 1.60 1.72 1.90 2.10 2.18 2.21 2.04 1.95 2.06 2.17 2.21 2.27 2.07 1.82 1.77